www.pogodaiklimat.ru

Погода и климат >> Архив погоды >> Австрия >> Санкт-Иоганн-ин-Тироль


ПОГОДА в Санкт-Иоганн-ин-Тироль

  • Прогноз погоды в Санкт-Иоганн-ин-Тироль
  • Монитор погоды в Санкт-Иоганн-ин-Тироль

АРХИВ ПОГОДЫ в Санкт-Иоганн-ин-Тироль

Время (UTC), дата Ветер
(напр.,м/с)
 
Видим.   Явления Облачность Т
(С)
Тd
(С)
f
(%)
Тe
(С)
Тes
(С)
Комфортность P
(гПа)
Po
(гПа)
Тmin
(С)
Tmax
(С)
R
(мм)
R24
(мм)
S
(см)
06 9.06 В 1 20 км 3/0
[Ac trans Ci fib]
+13.4 +9.8 79 +14 +18 1024.9 951.1 +8.3
09 9.06 штиль 0 50 км 4/0
[Ci fib]
+19.7 +12.0 61 +21 +37 комфорт 1021.0 949.1
12 9.06 штиль 0 50 км 3/0
[Ci fib]
+27.1 +12.0 39 +28 +49 жарко 1020.7 946.3
15 9.06 З 1 50 км 5/5 2000 м
[Cu hum Ci]
+31.4 +11.7 30 +32 +37 жарко 1014.3 945.0
18 9.06 В 1 30 км 6/6 2000 м
[Cu hum Ac trans Ci fib]
+24.4 +13.9 52 +27 +27 жарко 1014.3 944.0 +31.4
06 10.06 В 1 20 км 9/1 1500 м
[Cu hum Ac trans Cs]
+15.9 +14.6 92 +17 +19 1015.9 943.5 +14.5
09 10.06 С 1 20 км 9/1 1500 м
[Cu hum Ac trans Cs]
+19.5 +16.2 81 +23 +31 комфорт 1014.2 942.8
12 10.06 штиль 0 20 км 9/1 1500 м
[Cu hum Ac trans Cs]
+20.7 +17.3 81 +24 +36 комфорт 1012.0 941.1
15 10.06 В 1 20 км 9/1 1500 м
[Cu hum Ac trans Cs]
+25.3 +15.0 53 +28 +33 жарко 1006.9 937.4
18 10.06 штиль 0 20 км 8/0
[Ac trans Cs]
+24.1 +11.0 44 +25 +26 комфорт 1007.7 937.7 +28.1
06 11.06 СВ 1 20 км {ливн. осадки} 6/0
[Ac trans Ci fib]
+16.6 +14.8 89 +17 +21 1010.8 939.0 +13.6 0.0
09 11.06 СВ 1 30 км 6/0
[Ac trans Ci fib]
+22.5 +16.5 69 +27 +38 душно 1006.6 936.6
12 11.06 ЮВ 1 30 км 6/0
[]
+28.6 +11.2 34 +29 +44 жарко 1004.5 935.8
15 11.06 ЮВ 1 30 км 6/4 2000 м
[Cu hum Ci fib]
+31.2 +11.6 30 +32 +37 жарко 1002.8 934.8
06 12.06 ЮВ 1 20 км {ливн. осадки} 9/4 2000 м
[St Ac trans]
+16.3 +15.0 92 +17 +19 1007.6 936.0 +14.7 2
09 12.06 Ю 1 20 км 6/6 2000 м
[Cu hum Ac trans]
+26.7 +12.7 42 +28 +35 жарко 1004.2 935.2
12 12.06 Ю 1 20 км 9/6 2000 м
[Cu hum Cs]
+28.4 +10.1 32 +29 +36 жарко 1004.5 935.8
15 12.06 штиль 0 20 км 8/5 2000 м
[Cu hum Ci fib]
+28.7 +10.4 32 +29 +34 жарко 1004.9 936.2
18 12.06 С 2 20 км 4/4 2000 м
[Cu hum]
+21.3 +13.5 61 +24 +24 комфорт 1007.7 937.2 +30.0
06 13.06 9000 м н/о +15.7 +13.5 87 +15 +17 1014.8 942.4 +14.3
09 13.06 штиль 0 50 км 1/1 1350 м
[Cu hum]
+20.6 +13.8 65 +23 +41 комфорт 1011.8 940.9
12 13.06 СЗ 1 50 км 1/1 2000 м
[Cu hum]
+28.0 +12.8 39 +29 +48 жарко 1007.4 938.4
15 13.06 В 3 50 км 1/1 2000 м
[Cu hum]
+29.8 +7.7 25 +29 +35 жарко 1006.9 938.2
18 13.06 С 1 30 км 1/1 2000 м
[Cu hum]
+24.4 +15.6 58 +27 +28 жарко 1009.9 940.0 +30.4
06 14.06 В 1 10 км 1/0
[Ci fib]
+16.8 +13.1 79 +18 +23 1021.4 947.1 +12.6
09 14.06 З 1 50 км 3/0
[Ci fib]
+23.7 +15.0 58 +27 +43 жарко 1015.7 945.2
12 14.06 З 1 50 км 5/0
[Ci sp]
+31.4 +14.1 35 +33 +52 опасность
солнечного
удара
1011.8 943.3
15 14.06 В 1 50 км 4/1 2000 м
[Cu hum Ci sp]
+33.5 +9.5 23 +33 +41 жарко 1009.8 941.8
18 14.06 ЮВ 1 30 км 6/1 2000 м
[Cu hum Ci sp]
+27.9 +10.2 33 +28 +29 жарко 1010.5 941.2 +34.1
06 15.06 В 1 30 км 9/1 2000 м
[Cu hum Ac und Ci fib]
+18.4 +14.3 77 +20 +23 1012.6 941.1 +16.9
09 15.06 штиль 0 20 км 8/1 1500 м
[Cu hum Ac und Ci fib]
+20.3 +16.3 78 +23 +34 комфорт 1012.6 941.6
12 15.06 ЮВ 1 20 км 8/8 2000 м
[Cu med, cong]
+28.1 +14.3 43 +30 +35 жарко 1008.8 939.8
15 15.06 СВ 3 20 км 9/6 1500 м
[Cu med, cong Ci fib]
+26.3 +16.0 53 +30 +32 душно 1009.5 940.1
18 15.06 штиль 0 20 км 9/9 1500 м
[Cu Sc]
+22.6 +16.4 68 +27 +27 душно 1011.8 941.4 +30.7

 

Местоположение метеостанции Санкт-Иоганн-ин-Тироль (Австрия): широта 47.32 долгота 13.18 высота над уровнем моря 647 м.

В архиве по умолчанию представлена погода в Санкт-Иоганн-ин-Тироль за последнюю неделю. Архивные данные за месяц целиком и за предыдущие месяцы, начиная с января 2011 года, Вы можете получить, выбрав интересующий диапазон дат из раскрывающегося списка и нажав кнопку "Ввод!".


*Определитесь, кто Вы:
робот инопланетянин человек

Внимание! Время в таблицах - всемирное. Для получения местного времени необходимо прибавить поправку, которая равна 1 ч.

Смотрите также архив погоды в соседних городах и на ближайших метеорологических станциях:

Погода в Санкт-Файт-им-Понгау (Австрия) (3 км)
Погода в Бишофсхофене (Австрия) (9 км)
Погода в Раурисе (Австрия) (18 км)
Погода в Радштадте (Австрия) (21 км)
Погода в Радштадте (Австрия) (21 км)
Погода в Мария-Альм (Австрия) (23 км)
Погода в Целль-ам-Зе (Австрия) (29 км)
Погода в Обертауерн (Австрия) (30 км)
Погода на Шмиттенхёэ (Австрия) (34 км)
Погода на Зоннблике (Австрия) (35 км)

Пояснения к столбцам:

Ветер - указаны скорость ветра в м/с - средняя за 10 мин, порывы в срок и между сроками (в фигурных скобках) и направление, откуда дует ветер: С - северный, СВ - северо-восточный, В - восточный, ЮВ - юго-восточный, Ю - южный, ЮЗ - юго-западный, З - западный, СЗ - северо-западный.
Видимость - горизонтальная дальность видимости в метрах или километрах. При видимости от 1 до 10 км при отсутствии осадков обычно наблюдается дымка, при ухудшении видимости до 1 км и менее - туман. В сухую погоду видимость может ухудшаться дымом, пылью или мглою.
Явления - указаны атмосферные явления, наблюдавшиеся в срок или в последний час перед сроком; фигурными скобками обозначены явления, наблюдавшиеся между сроками (за 1-3 часа до срока); квадратными скобками обозначены град или гололедные отложения с указанием их диаметра в мм.
Облачность - указаны через наклонную черту общая и нижняя облачность в баллах и высота нижней границы облаков в метрах; квадратными скобками обозначены формы облаков: Ci - перистые, Cs - перисто-слоистые, Cc - перисто-кучевые, Ac - высококучевые, As - высокослоистые, Sc - слоисто-кучевые, Ns - слоисто-дождевые, Cu - кучевые, Cb - кучево-дождевые. Подробнее классификацию облаков см. в Атласе облаков (PDF).
T - Температура воздуха - температура, измеренная на высоте 2 м над землей.
Td - Температура точки росы - температура, при понижении до которой содержащийся в воздухе водяной пар достигнет насыщения.
f - Относительная влажность воздуха - влажноcть воздуха, измеренная на высоте 2 м над землей.
Te - Эффективная температура - температура, которую ощущает одетый по сезону человек в тени. Характеристика душности погоды. При расчете учитывается влияние влажности воздуха и скорости ветра на теплоощущения человека.
Tes - Эффективная температура на солнце - температура, которую ощущает человек, с поправкой на солнечный нагрев. Характеристика знойности погоды. Зависит от высоты солнца над горизонтом, облачности и скорости ветра. Ночью, в пасмурную погоду, а также при ветре 12 м/с и более поправка равна нулю.
P - Атмосферное давление - приведенное к уровню моря атмосферное давление.
Po - Атмосферное давление - измеренное на уровне метеостанции атмосферное давление.
Tmin - Минимальная температура - минимум температуры воздуха на высоте 2 м над землей.
Tmax - Максимальная температура - максимум температуры воздуха на высоте 2 м над землей.
R - Количество осадков - Количество выпавших осадков за период времени, мм. При наведении курсора мыши на число - период времени, за который выпало указанное количество осадков.
R24 - Количество осадков - Количество выпавших осадков за 24 часа, мм.
S - Снежный покров - Высота снежного покрова, см. При наведении курсора мыши на число - состояние снежного покрова и степень покрытия местности в баллах.